Regional Weather Roundup
Issued by NWS

Home | Current Version | Previous Version | Text Only | Print | Product List | Glossary Off
Versions: 1 2 3 4 5 6 7 8 9 10 11 12 13 14 15 16 17 18 19 20 21 22 23 24 25 26 27 28 29 30 31 32 33 34 35 36 37 38 39 40 41 42 43 44 45 46 47 48 49 50

000
ASUS43 KMKX 230311
RWRWI

WISCONSIN REGIONAL WEATHER ROUNDUP
NATIONAL WEATHER SERVICE MILWAUKEE/SULLIVAN WI
900 PM CST SAT NOV 22 2014

NOTE: "FAIR" INDICATES FEW OR NO CLOUDS BELOW 12,000 FEET WITH NO
SIGNIFICANT WEATHER AND/OR OBSTRUCTIONS TO VISIBILITY.

WIZ001-002-006>008-014>016-023>028-230400-
NORTHWEST WISCONSIN

CITY           SKY/WX    TMP DP  RH WIND       PRES   REMARKS
SUPERIOR ARPT  CLOUDY    34  32  92 S3        29.62S
ASHLAND        CLOUDY    34  31  88 CALM      29.65S
HAYWARD        CLOUDY    35  33  92 S9        29.63F FOG     WCI  28
SIREN          CLOUDY    35  34  96 S9        29.60F FOG     WCI  27
CUMBERLAND     FOG       34  32  93 SE8       29.61F VSB 1   WCI  27
RICE LAKE      CLOUDY    35  35  97 SE7       29.64F FOG     WCI  29
CHETEK         CLOUDY    35  34  99 E5        29.63F FOG     WCI  31
LADYSMITH      CLOUDY    36  35  97 S7        29.67F FOG     WCI  30
EAU CLAIRE     FOG       36  35  96 SE6       29.65F VSB 3/4 WCI  31
MENOMONIE      FOG       36  35  97 SE7       29.64F VSB 1/4 WCI  30
NEW RICHMOND   FOG       36  36 100 SE5       29.61R VSB 3/4 WCI  32
OSCEOLA        CLOUDY    36  36 100 SE7       29.62S FOG     WCI  30
$$

WIZ003>005-009-010-017-018-230400-
NORTH CENTRAL WISCONSIN

CITY           SKY/WX    TMP DP  RH WIND       PRES   REMARKS
MANITOWISH WTR CLOUDY    32  32 100 S5        29.66F FOG     WCI  28
ARBOR VITAE    CLOUDY    37  35  95 S8        29.67S FOG     WCI  30
WOODRUFF       CLOUDY    37  35  95 S8        29.67S FOG     WCI  30
RHINELANDER    CLOUDY    34  33  96 S10       29.69S FOG     WCI  26
EAGLE RIVER    CLOUDY    33  33 100 S6        29.67F FOG     WCI  28
LAND O LAKES   CLOUDY    33  33  99 S5        29.68R FOG     WCI  29
PHILLIPS       CLOUDY    33  33  99 S7        29.66S FOG     WCI  27
TOMAHAWK       CLOUDY    34  33  95 CALM      29.69F FOG
MEDFORD        FOG       34  34 100 SE6       29.68F VSB 1/4 WCI  29
MERRILL        CLOUDY    35  35 100 S5        29.70F FOG     WCI  31
$$

WIZ029-030-035-036-043>047-230400-
CENTRAL WISCONSIN

CITY           SKY/WX    TMP DP  RH WIND       PRES   REMARKS
WAUSAU         CLOUDY    36  36 100 CALM      29.70F FOG
MOSINEE        SNOW      36  36 100 SE5       29.72F VSB 1/4 WCI  32
MARSHFIELD     FOG       36  36 100 SE7       29.70F VSB 1/4 WCI  30
STEVENS POINT  FOG       35  35 100 SE5       29.73S VSB 1/2 WCI  31
WAUPACA        FOG       39  38  94 CALM      29.76S VSB 1/2
WAUTOMA        FOG       39  39 100 CALM      29.75F VSB 1
WISC RAPIDS    CLOUDY    38  36  92 SE6       29.74S WCI  33
CAMP DOUGLAS   CLOUDY    39  39 100 SE3       29.70F FOG
$$

WIZ011>013-019>022-031-037>040-048>050-230400-
NORTHEAST WISCONSIN

CITY           SKY/WX    TMP DP  RH WIND       PRES   REMARKS
ANTIGO         FOG       33  33 100 S8        29.72S VSB 3/4 WCI  26
SHAWANO        CLOUDY    39  37  94 SW3       29.76S FOG
OCONTO         CLOUDY    37  37 100 CALM      29.77R VSB 3/4
STURGEON BAY   CLOUDY    39  36  87 SW6       29.78S WCI  35
GREEN BAY      FOG       39  38  96 CALM      29.78R VSB 1
MANITOWOC      CLOUDY    41  40  96 S6        29.80S FOG
APPLETON       NOT AVBL
CLINTONVILLE   FOG       36  36 100 CALM      29.76F VSB 1/2
OSHKOSH        CLOUDY    41  39  93 S3        29.77S FOG
$$

WIZ032>034-041-042-053>061-230400-
SOUTHWEST WISCONSIN

CITY           SKY/WX    TMP DP  RH WIND       PRES   REMARKS
LA CROSSE      CLOUDY    43  41  93 S13       29.66F FOG
SPARTA         MOCLDY    43  43 100 S5        29.69F FOG
VIROQUA        CLOUDY    44  44 100 S9        29.69F VSB 1
BOSCOBEL       CLOUDY    44  42  93 CALM      29.72F FOG
PRAIRIE DU CHI CLOUDY    51  49  91 S10       29.71S FOG
PLATTEVILLE    CLOUDY    49  49  97 S13       29.76R
$$

WIZ056-057-062-063-064-067-068-230400-
SOUTH CENTRAL WISCONSIN

CITY           SKY/WX    TMP DP  RH WIND       PRES   REMARKS
REEDSBURG      CLOUDY    45  45  98 S6        29.73S FOG
BARABOO/DELLS  CLOUDY    46  44  94 S9        29.73S FOG
LONE ROCK      CLOUDY    52  47  83 S5        29.74F HAZE
MINERAL POINT  CLOUDY    50  50 100 S12       29.75R FOG
MADISON        CLOUDY    48  45  89 S7        29.76S FOG
MIDDLETON      CLOUDY    50  49  96 SW7       29.76S
WATERTOWN      CLOUDY    45  45 100 S8        29.78S FOG
MONROE         CLOUDY    48  46  93 S17       29.76F FOG
JANESVILLE     CLOUDY    50  46  87 S8        29.79S
$$

WIZ051-052-058>065-066-070>072-230400-
SOUTHEAST WISCONSIN

CITY           SKY/WX    TMP DP  RH WIND       PRES   REMARKS
MILWAUKEE      MOCLDY    38  37  97 S5        29.81S FOG     WCI  34
WAUKESHA       CLOUDY    45  43  93 S5        29.81S FOG
MILWAUKEE/TIMM MOCLDY    45  43  93 S8        29.81S
RACINE         PTCLDY    48  44  86 SW12      29.83S
BURLINGTON     MOCLDY    46  45  95 S12       29.81S
KENOSHA        PTCLDY    49  46  90 SW10      29.82S
FOND DU LAC    CLOUDY    43  41  93 S8        29.77S FOG
SHEBOYGAN      CLOUDY    43  41  93 S6        29.78F
WEST BEND      FOG       43  41  93 SE3       29.78F VSB 1/4
JUNEAU         CLOUDY    44  44 100 S9        29.78S FOG
$$

LSZ147-162-230400-
LAKE SUPERIOR

STATION/POSITION TIME  TEMP    WIND        PRES    WAVE
                       AIR SEA DIR/SP/G            HT/PER
                 (UTC) (F)     (DEG/KT/KT) (MB)    (FT/S)
DEVILS ISLAND    0300   35     170/  6/  9 1004.6F
PORT WING        0200   35     160/  3/  5 1003.7F
SAXON HARBOR     0240   32        CALM     1004.4R
$$

LMZ867-665-643>646-230400-
LAKE MICHIGAN

STATION/POSITION TIME  TEMP    WIND        PRES    WAVE
                       AIR SEA DIR/SP/G            HT/PER
                 (UTC) (F)     (DEG/KT/KT) (MB)    (FT/S)
CHAMBERS ISLAND  0240   37     200/  8/ 15 1008.5R
N MID LAKE BUOY  0250   41 42  230/ 14/ 16 1008.6R   4/ 6
NORTHPORT PIER   0200   37     180/  2/  4 1008.1S
SISTER BAY       0128          220/  7/  8   N/A
KEWAUNEE LAKESHO 0200   40     210/  5/  8 1008.0R
SHEBOYGAN LAKESH 0300   43 36  160/ 10/ 10 1009.3F
PORT WASHINGTON  0240   41      CALM  /  1 1009.8F
ATWATER BUOY     0200   47      CALM  /  4 1010.7R
MILWAUKEE LAKESH 0200   46     180/  6/  6   N/A
S MID LAKE BUOY  0250   46 42  190/ 16/ 19 1010.8F   3/ 4
KENOSHA   LAKESH 0300   51     210/ 10/ 15 1010.2R
$$

TC  - TEMPERATURE IN CELSIUS
VSB - VISIBILITY IN STATUTE MILES
WCI - WIND CHILL INDEX
HX  - HEAT INDEX




USA.gov is the U.S. government's official web portal to all federal, state and local government web resources and services.